Location: Bonneuil
(46.1010°N, 2.9693°E)
Time: 01:07:54
(UTC+00:00)

ISS - Pass Details

Date: 07 March 2021
Orbit: 418 x 422 km, 51.6° (Epoch: 10 April)

Event Time Altitude Azimuth Distance (km) Brightness Sun altitude
Exits shadow 03:55:17 29° 35° (NE) 803 -1.9 -24.9°
Drops below altitude 10° 03:57:37 10° 74° (ENE) 1,499 0.1 -24.5°
Sets 03:59:51 0° 84° (E) 2,363 1.4 -24.1°
